Simultaneous Nadir Overpasses (SNOs) Predictions

Prediction of SNOs between AQUA and METOP-B Satellite Orbit:

Table of predicted SNOs for the next 14.0 days since TLE Epoch: 3/15/2019
Index Date (AQUA) Time (AQUA) Lat,Lon (AQUA) SZA (AQUA ) Date (METOP-B) Time (METOP-B) Lat,Lon (METOP-B) SZA (METOP-B ) Distance(km) Time Diff (sec)
1 03/16/2019 10:09:50 73.87, 21.77 75.71 03/16/2019 10:09:15 73.88, 21.84 75.73 2.52 35
2 03/16/2019 10:59:17 -73.91,-170.67 104.27 03/16/2019 10:59:56 -73.91,-170.78 104.27 3.40 39
3 03/19/2019 05:44:07 73.87, 88.20 74.59 03/19/2019 05:43:39 73.88, 88.23 74.61 1.35 28
4 03/19/2019 06:33:35 -73.96,-104.36 105.33 03/19/2019 06:34:19 -73.95,-104.26 105.35 3.02 44
5 03/22/2019 00:28:44 -73.19, -11.57 107.24 03/22/2019 00:27:38 -73.12, -14.43 107.18 92.46 66
6 03/22/2019 01:18:24 73.88, 154.61 73.48 03/22/2019 01:18:03 73.87, 154.62 73.48 0.96 21
7 03/22/2019 02:07:52 -73.97, -37.95 106.44 03/22/2019 02:08:43 -73.95, -37.86 106.47 3.25 51
8 03/24/2019 20:03:05 -73.47, 54.29 108.06 03/24/2019 20:01:55 -73.42, 52.63 108.04 52.71 70
9 03/24/2019 20:52:40 73.90,-139.00 72.39 03/24/2019 20:52:26 73.87,-138.99 72.36 3.45 14
10 03/24/2019 21:42:07 -73.93, 28.56 107.60 03/24/2019 21:43:06 -73.95, 28.53 107.59 1.64 59
11 03/27/2019 15:37:26 -73.70, 120.22 108.93 03/27/2019 15:36:14 -73.66, 119.60 108.93 19.98 72
12 03/27/2019 16:26:56 73.87, -72.50 71.24 03/27/2019 16:26:50 73.86, -72.60 71.24 3.12 6
13 03/27/2019 17:16:24 -73.96, 94.94 108.68 03/27/2019 17:17:30 -73.94, 94.92 108.71 2.15 66




NCC Satellite Simultaneous Nadir Overpasses (SNOs) Prediction Service
